Retour au catalogue

STARLINK-33777

ActifCommunicationsVLEO
NORAD 63843·PAYLOAD·🇺🇸 United States

Lancé May 7, 2025 depuis Cape Canaveral Space Force Station

Loading…

Prochains Passages (prochaines 24 heures)

TLE

FraisSource: CelesTrak SupGP

Époque: Sep 15, 2026, 03:30 UTC

1 63843C 25093H   26258.14631944 -.00016647  00000+0 -60289-3 0  2589
2 63843  43.0016  87.6884 0001472 267.9630 326.0959 15.27591150    19

Suivez STARLINK-33777 en temps réel avec AllMySat

Download on the App Store